Weather History for KDUX - June, 2013

Change the Weather History Date:

Saturday, June 8, 2013

  Actual Average (KBGD) Record (KBGD)
Temperature  
Mean Temperature 72 °F 75 °F  
Max Temperature 86 °F 88 °F 106 °F (1981)
Min Temperature 57 °F 62 °F 48 °F (2007)
Degree Days  
Heating Degree Days 0 0  
Month to date heating degree days 0  
Since 1 June heating degree days 0  
Since 1 July heating degree days 3763  
Cooling Degree Days 6 10  
Month to date cooling degree days 74  
Year to date cooling degree days 271  
Since 1 June cooling degree days 74  
Growing Degree Days 22 (Base 50)    
Moisture  
Dew Point 57 °F    
Average Humidity 65    
Maximum Humidity 92    
Minimum Humidity 26    
Precipitation  
Precipitation 0.14 in 0.12 in 2.04 in (1960)
Month to date precipitation 0.91  
Year to date precipitation 7.96  
Snow  
Snow 0.00 in - T in (1954)
Month to date snowfall  
Since 1 June snowfall  
Since 1 July snowfall  
Snow Depth -    
Sea Level Pressure  
Sea Level Pressure 29.86 in    
Wind  
Wind Speed 17 mph (SSW)    
Max Wind Speed 25 mph    
Max Gust Speed 33 mph    
Visibility 10 miles    
Events Rain    
T = Trace of Precipitation, MM = Missing Value Source: NWS Daily Summary

Daily Weather History Graph

Daily Weather History Graph

Search for Another Location

Airport or City:

Trip Planner

Search our weather history database for the weather conditions in past years. The results will help you decide how hot, cold, wet, or windy it might be!

Date:

Astronomy

Jun. 08, 2013 Rise Set
Actual Time 6:31 AM CDT 9:03 PM CDT
Civil Twilight 6:01 AM CDT 9:33 PM CDT
Nautical Twilight 5:24 AM CDT 10:10 PM CDT
Astronomical Twilight 4:43 AM CDT 10:51 PM CDT
Moon 6:38 AM CDT (6/8) 9:09 PM CDT (6/8)
Length of Visible Light 15h 31m
Length of Day
14h 31m
New Moon, 0% of the Moon is Illuminated
Jun 8
New Moon
Jun 16
First Quarter
Jun 23
Full
Jun 29
Last Quarter
Jul 8
New

Hourly Weather History & Observations

Time (CDT) Temp. Heat Index Dew Point Humidity Pressure Visibility Wind Dir Wind Speed Gust Speed Precip Events Conditions
12:15 AM 59.9 °F - 56.3 °F 88% 29.98 in 10.0 mi SE 21.9 mph - N/A   Clear
12:35 AM 60.3 °F - 55.8 °F 85% 29.97 in 10.0 mi SSE 24.2 mph 31.1 mph N/A   Clear
12:55 AM 59.9 °F - 56.3 °F 88% 29.96 in 10.0 mi SSE 20.7 mph 31.1 mph N/A   Clear
1:15 AM 59.9 °F - 56.5 °F 88% 29.96 in 10.0 mi SSE 19.6 mph 25.3 mph N/A   Clear
1:35 AM 59.4 °F - 56.8 °F 91% 29.96 in 10.0 mi South 12.7 mph - N/A   Clear
1:55 AM 59.2 °F - 56.5 °F 91% 29.95 in 10.0 mi South 11.5 mph - N/A   Clear
2:15 AM 59.0 °F - 56.3 °F 91% 29.93 in 10.0 mi South 10.4 mph - N/A   Clear
2:35 AM 59.0 °F - 55.9 °F 90% 29.93 in 10.0 mi South 9.2 mph - N/A   Clear
2:55 AM 59.0 °F - 55.4 °F 88% 29.92 in 10.0 mi South 10.4 mph - N/A   Clear
3:15 AM 59.0 °F - 55.4 °F 88% 29.92 in 10.0 mi SSW 10.4 mph - N/A   Clear
3:35 AM 59.0 °F - 55.4 °F 88% 29.91 in 10.0 mi SSW 13.8 mph - N/A   Clear
3:55 AM 59.4 °F - 55.4 °F 87% 29.91 in 10.0 mi SW 13.8 mph - N/A   Clear
4:15 AM 59.0 °F - 55.6 °F 88% 29.90 in 10.0 mi SW 16.1 mph - N/A   Clear
4:35 AM 59.0 °F - 55.8 °F 89% 29.89 in 10.0 mi SW 13.8 mph - N/A   Clear
4:55 AM 58.6 °F - 55.9 °F 91% 29.88 in 10.0 mi SW 15.0 mph - N/A   Clear
5:15 AM 58.5 °F - 55.8 °F 91% 29.88 in 10.0 mi WSW 15.0 mph - N/A   Clear
5:35 AM 58.3 °F - 55.8 °F 91% 29.87 in 10.0 mi WSW 11.5 mph - N/A   Clear
5:55 AM 57.9 °F - 55.6 °F 92% 29.87 in 10.0 mi WSW 9.2 mph - N/A   Clear
6:15 AM 57.7 °F - 55.6 °F 92% 29.87 in 10.0 mi SW 9.2 mph - N/A   Clear
6:35 AM 57.6 °F - 55.4 °F 92% 29.87 in 10.0 mi SW 11.5 mph - N/A   Clear
6:55 AM 58.5 °F - 55.0 °F 88% 29.87 in 10.0 mi SW 12.7 mph 16.1 mph N/A   Clear
7:15 AM 59.5 °F - 54.7 °F 84% 29.89 in 10.0 mi SSW 11.5 mph - N/A   Clear
7:35 AM 60.3 °F - 55.0 °F 83% 29.89 in 10.0 mi SSW 12.7 mph - N/A   Clear
7:55 AM 60.8 °F - 55.9 °F 84% 29.89 in 10.0 mi SSW 16.1 mph - N/A   Clear
8:15 AM 61.7 °F - 55.9 °F 81% 29.89 in 10.0 mi SW 16.1 mph - N/A   Clear
8:35 AM 62.8 °F - 56.7 °F 80% 29.88 in 10.0 mi SW 16.1 mph - N/A   Clear
8:55 AM 63.7 °F - 56.1 °F 76% 29.88 in 10.0 mi SW 20.7 mph - N/A   Clear
9:15 AM 64.9 °F - 57.0 °F 75% 29.87 in 10.0 mi SW 17.3 mph - N/A   Clear
9:35 AM 66.6 °F - 56.8 °F 71% 29.87 in 10.0 mi SW 18.4 mph - N/A   Clear
9:55 AM 68.0 °F - 57.0 °F 68% 29.87 in 10.0 mi SSW 17.3 mph - N/A   Clear
10:15 AM 69.4 °F - 57.4 °F 65% 29.86 in 10.0 mi SSW 17.3 mph - N/A   Clear
10:35 AM 70.7 °F - 56.5 °F 61% 29.86 in 10.0 mi SSW 21.9 mph 25.3 mph N/A   Clear
10:55 AM 71.6 °F - 57.4 °F 61% 29.85 in 10.0 mi SSW 19.6 mph 27.6 mph N/A   Clear
11:15 AM 72.5 °F - 57.6 °F 59% 29.85 in 10.0 mi SSW 25.3 mph 31.1 mph N/A   Clear
11:35 AM 73.0 °F - 58.1 °F 59% 29.84 in 10.0 mi SSW 23.0 mph 29.9 mph N/A   Clear
11:55 AM 74.1 °F - 59.2 °F 59% 29.84 in 10.0 mi SW 21.9 mph 32.2 mph N/A   Clear
12:15 PM 74.5 °F - 58.8 °F 58% 29.84 in 10.0 mi SW 21.9 mph 29.9 mph N/A   Clear
12:35 PM 75.7 °F - 60.3 °F 59% 29.83 in 10.0 mi SSW 21.9 mph 29.9 mph N/A   Clear
12:55 PM 76.5 °F - 60.3 °F 57% 29.82 in 10.0 mi SSW 21.9 mph 31.1 mph N/A   Clear
1:15 PM 77.5 °F - 60.3 °F 55% 29.81 in 10.0 mi SSW 23.0 mph 33.4 mph N/A   Clear
1:35 PM 76.6 °F - 59.5 °F 55% 29.81 in 10.0 mi South 19.6 mph 27.6 mph N/A   Clear
1:55 PM 79.3 °F - 60.4 °F 52% 29.81 in 10.0 mi SSW 20.7 mph 27.6 mph N/A   Clear
2:15 PM 79.7 °F - 59.7 °F 50% 29.80 in 10.0 mi SSW 24.2 mph 31.1 mph N/A   Clear
2:35 PM 81.3 °F 81.8 °F 59.7 °F 48% 29.79 in 10.0 mi SSW 23.0 mph 32.2 mph N/A   Clear
2:55 PM 82.8 °F 82.8 °F 59.2 °F 45% 29.78 in 10.0 mi South 20.7 mph 26.5 mph N/A   Clear
3:15 PM 84.2 °F 83.8 °F 59.0 °F 42% 29.77 in 10.0 mi SSW 24.2 mph 32.2 mph N/A   Clear
3:35 PM 82.6 °F 82.3 °F 57.9 °F 43% 29.77 in 10.0 mi SSW 19.6 mph 27.6 mph N/A   Clear
3:55 PM 81.7 °F 81.6 °F 58.1 °F 44% 29.77 in 10.0 mi South 18.4 mph 24.2 mph N/A   Clear
4:15 PM 81.3 °F 81.4 °F 58.1 °F 45% 29.76 in 10.0 mi South 16.1 mph - N/A   Clear
4:35 PM 80.1 °F 80.6 °F 58.1 °F 47% 29.76 in 10.0 mi South 13.8 mph - N/A   Clear
4:55 PM 79.2 °F - 58.1 °F 48% 29.79 in 7.0 mi SSW 9.2 mph - N/A   Scattered Clouds
5:15 PM 78.3 °F - 55.9 °F 46% 29.77 in 10.0 mi SW 15.0 mph - N/A   Scattered Clouds
5:35 PM 86.5 °F - 47.5 °F 26% 29.76 in 10.0 mi SW 11.5 mph - N/A   Clear
5:55 PM 86.7 °F 84.7 °F 53.4 °F 32% 29.76 in 10.0 mi SW 18.4 mph - N/A   Clear
6:15 PM 85.5 °F 84.6 °F 58.1 °F 39% 29.75 in 10.0 mi SSW 23.0 mph 27.6 mph N/A   Clear
6:35 PM 85.8 °F 84.7 °F 56.5 °F 37% 29.75 in 10.0 mi SSW 19.6 mph - N/A   Clear
6:55 PM 86.0 °F 84.7 °F 55.9 °F 36% 29.76 in 10.0 mi SSW 16.1 mph 24.2 mph N/A   Clear
7:15 PM 83.5 °F 82.8 °F 56.7 °F 40% 29.78 in 10.0 mi SSW 10.4 mph - N/A   Clear
7:35 PM 83.7 °F 82.8 °F 56.3 °F 39% 29.77 in 10.0 mi SSW 16.1 mph - N/A   Clear
7:55 PM 82.4 °F 81.9 °F 56.7 °F 41% 29.78 in 10.0 mi SSW 11.5 mph 16.1 mph N/A   Clear
8:15 PM 82.8 °F 82.1 °F 56.5 °F 40% 29.79 in 10.0 mi SW 9.2 mph - N/A   Clear
8:35 PM 82.2 °F 82.0 °F 57.9 °F 43% 29.82 in 10.0 mi WSW 5.8 mph - N/A   Clear
8:55 PM 79.2 °F - 57.4 °F 47% 29.85 in 10.0 mi North 21.9 mph 29.9 mph N/A   Scattered Clouds
9:15 PM 75.6 °F - 55.6 °F 50% 29.86 in 10.0 mi NNE 17.3 mph - N/A   Scattered Clouds
9:35 PM 72.7 °F - 56.1 °F 56% 29.89 in 10.0 mi NNE 18.4 mph 23.0 mph N/A   Clear
9:55 PM 71.4 °F - 53.8 °F 54% 29.92 in 10.0 mi NNE 17.3 mph 23.0 mph N/A   Clear
10:15 PM 71.2 °F - 52.5 °F 52% 29.93 in 10.0 mi NNE 17.3 mph 24.2 mph N/A   Scattered Clouds
10:35 PM 70.7 °F - 52.5 °F 52% 29.95 in 10.0 mi NE 13.8 mph - N/A   Scattered Clouds
10:55 PM 70.3 °F - 54.3 °F 57% 29.97 in 10.0 mi NE 13.8 mph 21.9 mph N/A   Scattered Clouds
11:15 PM 69.8 °F - 56.7 °F 63% 29.97 in 10.0 mi NE 11.5 mph 19.6 mph N/A   Scattered Clouds
11:35 PM 68.5 °F - 58.8 °F 71% 29.98 in 10.0 mi NE 9.2 mph - N/A   Scattered Clouds
11:55 PM 66.0 °F - 60.4 °F 82% 29.99 in 3.0 mi NE 8.1 mph - 0.14 in Rain Heavy Rain